sat.trackr.live / text

‹ back to catalog

STARLINK-33652

NORAD 63400 · 2025-065B

PAYLOAD ACTIVE UNKNOWN

§ Identity

Operator
Country
US
Launch date
2025-03-31
Launch site
AFETR
Launch vehicle
Mass (kg)
RCS (m²)

Purposes: comms

External: N2YO · Heavens-Above · Gunter

§ Orbital elements

Epoch: 2026-05-25T01:16:55.812000Z

Period
94.27 min
Inclination
43.0015°
Eccentricity
0.0001727
Mean motion
15.27575516 rev/d
Perigee alt
481.9 km
Apogee alt
484.2 km
Semi-major
6,861.2 km
B*
2.2374e-4
RAAN
35.3989°
Arg perigee
268.7874°
Mean anomaly
91.2780°
Rev number
6,452

§ Raw data

STARLINK-336521 63400U 25065B   26145.05342375  .00005899  00000+0  22374-3 0  99992 63400  43.0015  35.3989 0001727 268.7874  91.2780 15.27575516 64522

JSON: /api/v1/satellites/63400 · /tle

For live sub-satellite position, see the globe view (requires WebGL).

§ Visibility from observer

Set your observer location to see the next 7 days of passes ≥ 10°. The values pass through the URL so the page stays shareable.

No JS? Fill the form by hand. The geolocation button needs JavaScript.